STARLINK-34738

Last updated on Wed Aug 27 2025 00:02:05 GMT+0000 (Coordinated Universal Time)

1 64951U 25158V 25237.91670139 .00068584 00000+0 17477-2 0 9999 2 64951 97.6028 100.5682 0001945 95.4354 229.7259 15.39296257 5921
UTC large
Height (km)
Speed (km/s)
/
Latitude / Longitude
Inclination (degrees)
Orbital Period (minutes)
Azimuth
Elevation
Range (km)
Doppler Factor

Next 0 passes for location: London (51.5072 / 0.1276)

Sorry there are no passes over London.
STARLINK-34738